[[{"header":{"parameterUnit":"m.s-1","parameterCategory":2,"la1":30.2991,"la2":30.254,"lo1":-89.0895,"lo2":-89.0444,"dy":0.0017,"dx":0.0017,"nx":28,"ny":28,"refTime":"2025-08-18T09:00:00:Z","depth":"0","parameterNumber":2,"parameterNumberName":"U-component_of_CURRENTS"},"data":[0,0,0,0,0,0,0,0,0,0,0,0,0,0,0,0,0,0,0,0,0,0,0,0,0,0,0,0,0,0,0,0,0,0,0,0,0,0,0,0,0,0,0,0,0,0,0,0,0,0,0,0,0,0,0,0,0,0,-0.2393,-0.2392,0,-0.2287,-0.2286,-0.2284,-0.2229,-0.223,-0.223,-0.223,-0.208,-0.2076,-0.2072,0,0,0,0,0,0,0,0,0,0,0,0,0,-0.2426,-0.2427,-0.2393,-0.2392,-0.2391,-0.2287,-0.2286,-0.2284,-0.2229,-0.223,-0.223,-0.223,-0.2082,-0.2077,-0.2072,0,0,0,0,0,0,0,0,0,0,0,0,0,-0.2373,-0.2427,-0.2394,-0.2354,-0.235,-0.2288,-0.2285,-0.2283,-0.2229,-0.223,-0.223,-0.223,-0.2083,-0.2077,-0.2071,-0.2025,0,0,-0.2052,-0.2049,0,0,0,0,0,0,0,0,-0.2376,-0.2371,-0.2361,-0.2357,-0.2352,-0.2275,-0.2242,-0.2196,-0.2229,-0.2272,-0.223,-0.223,-0.2143,-0.2132,-0.2107,-0.2018,-0.2012,-0.2051,-0.2047,-0.2044,-0.2043,0,0,0,0,0,0,0,-0.238,-0.2375,-0.2348,-0.236,-0.2354,-0.23,-0.2293,-0.2233,-0.2203,-0.2268,-0.2264,-0.2257,-0.214,-0.2113,-0.2103,-0.2009,-0.2051,-0.2046,-0.2042,-0.2039,-0.1952,-0.1953,0,0,0,0,0,0,-0.2405,-0.2379,-0.2352,-0.2345,-0.2368,-0.2299,-0.2292,-0.2296,-0.2205,-0.2192,-0.2257,-0.2255,-0.2124,-0.2111,-0.2098,-0.2104,-0.2045,-0.2039,-0.2035,-0.195,-0.1952,-0.1953,0,0,0,0,0,0,-0.2407,-0.2405,-0.2356,-0.2361,-0.2352,-0.23,-0.2304,-0.2294,-0.227,-0.2198,-0.2184,-0.2245,-0.2124,-0.2106,-0.2064,-0.2096,-0.2036,-0.203,-0.1948,-0.1951,-0.1953,-0.2075,0,0,0,0,0,0,-0.2408,-0.2406,-0.2413,-0.2364,-0.2353,-0.2336,-0.2304,-0.2292,-0.2267,-0.2263,-0.2182,-0.2168,-0.2123,-0.2074,-0.2057,-0.2086,-0.2025,-0.1947,-0.1949,-0.1952,-0.2069,-0.2081,-0.2091,0,0,0,0,0,-0.241,-0.2414,-0.2415,-0.2411,-0.2367,-0.2337,-0.2326,-0.2287,-0.2266,-0.2264,-0.2215,-0.2171,-0.208,-0.2069,-0.205,-0.2077,-0.1945,-0.1949,-0.1952,-0.2064,-0.2078,-0.2091,0,0,0,0,0,0,-0.2421,-0.2408,-0.2407,-0.2406,-0.2386,-0.233,-0.231,-0.229,-0.2246,-0.2236,-0.2172,-0.2155,-0.2136,-0.2085,-0.2075,-0.2063,-0.2012,-0.2011,-0.2104,-0.2117,-0.2128,-0.2175,-0.202,0,0,0,0,0,-0.2434,-0.2439,-0.2417,-0.2416,-0.2405,-0.236,-0.234,-0.232,-0.2276,-0.2257,-0.2205,-0.2157,-0.2132,-0.2108,-0.2067,-0.2043,-0.2,-0.2054,-0.2066,-0.2075,-0.2103,-0.2109,-0.2124,-0.1964,-0.1964,-0.1964,0,0,-0.2436,-0.243,-0.2431,-0.242,-0.239,-0.2386,-0.2347,-0.2321,-0.2327,-0.2245,-0.2222,-0.2184,-0.2134,-0.2124,-0.2112,-0.2086,-0.2081,-0.2079,-0.2088,-0.2111,-0.2115,-0.213,-0.2144,-0.1966,-0.1966,-0.1966,0,0,-0.2436,-0.2438,-0.244,-0.2434,-0.2411,-0.2395,-0.2395,-0.235,-0.2339,-0.2313,-0.2279,-0.2278,-0.2191,-0.2201,-0.2187,-0.2233,-0.2141,-0.2201,-0.2291,-0.2298,-0.2311,-0.2323,-0.2218,-0.222,-0.2207,-0.2207,-0.2207,0,-0.2437,-0.245,-0.2433,-0.2435,-0.2439,-0.2407,-0.2416,-0.2401,-0.2354,-0.2364,-0.2321,-0.2286,-0.2246,-0.2285,-0.2309,-0.2264,-0.2202,-0.2244,-0.2315,-0.2326,-0.2336,-0.2225,-0.2226,-0.2213,-0.2213,-0.2212,-0.2211,0,-0.2437,-0.2458,-0.2452,-0.2464,-0.2465,-0.2465,-0.246,-0.2461,-0.244,-0.2436,-0.2454,-0.2413,-0.2403,-0.2397,-0.2361,-0.2425,-0.2331,-0.2329,-0.2286,-0.236,-0.2237,-0.2235,-0.2222,-0.222,-0.2218,-0.2217,0,0,-0.2418,-0.2451,-0.2452,-0.2482,-0.2489,-0.2492,-0.2518,-0.2546,-0.2569,-0.255,-0.2578,-0.2588,-0.2574,-0.2561,-0.253,-0.255,-0.2549,-0.2472,-0.2469,-0.2373,-0.2467,-0.2354,-0.2338,-0.2551,-0.2554,-0.2555,-0.2326,0,-0.2426,-0.2462,-0.2474,-0.2521,-0.2544,-0.2557,-0.2587,-0.2614,-0.2613,-0.2625,-0.2644,-0.2641,-0.2632,-0.2617,-0.2651,-0.2562,-0.256,-0.2605,-0.2405,-0.2397,-0.2297,-0.2342,-0.2236,-0.2022,-0.2324,-0.2323,-0.2323,0,-0.2418,-0.2458,-0.2507,-0.2582,-0.259,-0.2613,-0.2674,-0.2694,-0.2728,-0.2724,-0.2759,-0.2732,-0.2756,-0.2731,-0.2672,-0.2686,-0.2604,-0.2544,-0.2533,-0.2398,-0.2285,-0.2011,-0.2007,-0.1998,-0.2319,-0.232,-0.232,0,-0.2418,-0.2481,-0.2534,-0.2555,-0.2624,-0.2655,-0.2685,-0.2727,-0.2733,-0.2777,-0.2752,-0.28,-0.274,-0.273,-0.2598,-0.2626,-0.2484,-0.2499,-0.2321,-0.2305,-0.2166,-0.2137,-0.2149,-0.2494,-0.2494,-0.2495,-0.2496,0,-0.2428,-0.2466,-0.2541,-0.2571,-0.2628,-0.2672,-0.271,-0.2748,-0.2765,-0.2743,-0.2793,-0.2745,-0.2739,-0.2643,-0.2589,-0.2409,-0.2468,-0.2341,-0.2271,-0.2194,-0.2171,-0.2117,-0.2153,-0.2486,-0.2488,-0.249,-0.2491,0,-0.2402,-0.2455,-0.2513,-0.2602,-0.2623,-0.2657,-0.2685,-0.2694,-0.2727,-0.2684,-0.2683,-0.2655,-0.2527,-0.2476,-0.2371,-0.2322,-0.2168,-0.2147,-0.1998,-0.192,-0.1789,-0.1834,-0.1766,-0.1716,-0.1927,-0.1923,-0.192,0,-0.2389,-0.242,-0.251,-0.2522,-0.2553,-0.2598,-0.2602,-0.2661,-0.2637,-0.2599,-0.2547,-0.2442,-0.2316,-0.211,-0.2029,-0.1888,-0.196,-0.1729,-0.1832,-0.1777,-0.1777,-0.1834,-0.1803,-0.1638,-0.1633,-0.1629,-0.1625,0,-0.235,-0.2376,-0.2415,-0.2444,-0.246,-0.2474,-0.2478,-0.2452,-0.2467,-0.2432,-0.2304,-0.221,-0.2002,-0.1813,-0.1661,-0.1595,-0.1706,-0.1637,-0.1655,-0.1629,-0.1621,-0.1536,-0.1718,-0.1588,-0.1592,-0.1594,-0.1596,-0.1598,-0.228,-0.2288,-0.2315,-0.2324,-0.2335,-0.2291,-0.221,-0.2215,-0.2152,-0.2006,-0.2042,-0.1834,-0.1712,-0.1484,-0.14,-0.1269,-0.1386,-0.1269,-0.1332,-0.1397,-0.138,-0.1437,-0.1209,-0.121,-0.1212,-0.1213,-0.1214,0,-0.2166,-0.2168,-0.2178,-0.2137,-0.2038,-0.2117,-0.2058,-0.1934,-0.1782,-0.1737,-0.1618,-0.1437,-0.1281,-0.119,-0.1077,-0.1008,-0.1021,-0.1006,-0.1099,-0.1087,-0.117,-0.1193,-0.0864,-0.0864,-0.0864,-0.0864,-0.0864,-0.0864,-0.2092,-0.2048,-0.205,-0.1836,-0.1774,-0.1584,-0.1502,-0.1405,-0.1337,-0.1137,-0.1006,-0.0915,-0.0941,-0.1081,-0.0996,-0.0932,-0.0958,-0.0903,-0.0967,-0.1071,-0.1103,-0.1133,-0.1165,-0.0836,-0.0836,-0.0831,-0.0832,-0.0832]},{"header":{"parameterUnit":"m.s-1","parameterCategory":2,"la1":30.2991,"la2":30.254,"lo1":-89.0895,"lo2":-89.0444,"dy":0.0017,"dx":0.0017,"nx":28,"ny":28,"refTime":"2025-08-18T09:00:00:Z","depth":"0","parameterNumber":3,"parameterNumberName":"V-component_of_CURRENTS"},"data":[0,0,0,0,0,0,0,0,0,0,0,0,0,0,0,0,0,0,0,0,0,0,0,0,0,0,0,0,0,0,0,0,0,0,0,0,0,0,0,0,0,0,0,0,0,0,0,0,0,0,0,0,0,0,0,0,0,0,-0.012,-0.012,0,-0.0068,-0.0067,-0.0067,-0.0032,-0.0032,-0.0031,-0.0031,0.0015,0.0016,0.0017,0,0,0,0,0,0,0,0,0,0,0,0,0,-0.02,-0.0198,-0.012,-0.012,-0.0119,-0.0068,-0.0067,-0.0067,-0.0032,-0.0032,-0.0031,-0.0031,0.0015,0.0016,0.0017,0,0,0,0,0,0,0,0,0,0,0,0,0,-0.016,-0.0198,-0.0121,-0.0094,-0.0091,-0.0068,-0.0067,-0.0067,-0.0033,-0.0032,-0.0031,-0.0031,0.0015,0.0016,0.0017,0.0011,0,0,0.0021,0.0021,0,0,0,0,0,0,0,0,-0.0162,-0.0158,-0.0098,-0.0095,-0.0092,-0.0054,-0.0078,-0.004,-0.0033,-0.0057,-0.0031,-0.003,-0.0007,-0.0004,0.0001,0.0014,0.0015,0.0021,0.0022,0.0022,0.0023,0,0,0,0,0,0,0,-0.0165,-0.016,-0.0102,-0.0098,-0.0093,-0.0087,-0.0081,-0.0071,-0.0039,-0.0055,-0.0052,-0.0042,-0.0006,-0.0,0.0002,0.0016,0.0021,0.0022,0.0023,0.0023,-0.0026,-0.0028,0,0,0,0,0,0,-0.0167,-0.0162,-0.0104,-0.01,-0.0124,-0.0086,-0.0079,-0.0069,-0.0038,-0.0032,-0.0043,-0.0041,-0.0003,0.0001,0.0004,-0.0044,0.0022,0.0023,0.0024,-0.0024,-0.0026,-0.0029,0,0,0,0,0,0,-0.0169,-0.0162,-0.0106,-0.0128,-0.012,-0.0085,-0.0074,-0.0068,-0.006,-0.0029,-0.0023,-0.004,-0.0002,0.0002,-0.0004,-0.004,0.0024,0.0025,-0.0021,-0.0025,-0.0027,-0.0112,0,0,0,0,0,0,-0.0171,-0.0163,-0.0164,-0.0128,-0.0119,-0.0111,-0.0074,-0.0067,-0.0054,-0.0051,-0.0025,-0.002,-0.0001,-0.0006,-0.0003,-0.0037,0.0026,-0.0019,-0.0023,-0.0026,-0.0106,-0.0117,-0.0127,0,0,0,0,0,-0.0175,-0.0178,-0.0164,-0.0157,-0.0118,-0.0112,-0.0108,-0.0081,-0.0055,-0.0068,-0.0049,-0.002,-0.0028,-0.0007,-0.0002,-0.0037,-0.0017,-0.0022,-0.0026,-0.0102,-0.0115,-0.0126,0,0,0,0,0,0,-0.0218,-0.0174,-0.0158,-0.0149,-0.0139,-0.0105,-0.0107,-0.0085,-0.0078,-0.0069,-0.0038,-0.0034,-0.0057,-0.0036,-0.0013,-0.0065,-0.0021,-0.0025,-0.0081,-0.0093,-0.0103,-0.0097,0.0027,0,0,0,0,0,-0.0226,-0.0214,-0.0182,-0.0179,-0.0172,-0.0139,-0.0132,-0.0113,-0.0097,-0.0091,-0.0075,-0.0065,-0.0074,-0.0073,-0.0074,-0.0094,-0.0038,-0.0117,-0.0127,-0.0136,-0.0131,-0.0078,-0.0082,-0.0044,-0.0044,-0.0044,0,0,-0.0242,-0.0215,-0.0209,-0.0187,-0.017,-0.0194,-0.0134,-0.0126,-0.0152,-0.0088,-0.0118,-0.0097,-0.0088,-0.0119,-0.0128,-0.0104,-0.012,-0.0142,-0.0149,-0.0139,-0.0083,-0.0086,-0.0089,-0.0047,-0.0046,-0.0046,0,0,-0.0281,-0.0244,-0.0258,-0.0259,-0.0238,-0.0224,-0.0225,-0.0198,-0.0191,-0.0211,-0.018,-0.0172,-0.0187,-0.0182,-0.0184,-0.0248,-0.0176,-0.026,-0.0303,-0.0253,-0.0254,-0.0255,-0.019,-0.0184,-0.0264,-0.0264,-0.0264,0,-0.0307,-0.0319,-0.0266,-0.0294,-0.0304,-0.0246,-0.0287,-0.028,-0.0264,-0.0255,-0.0237,-0.023,-0.0219,-0.0243,-0.0274,-0.0269,-0.022,-0.0256,-0.0262,-0.0262,-0.0261,-0.0194,-0.0186,-0.0269,-0.0268,-0.0268,-0.0267,0,-0.0365,-0.0388,-0.0397,-0.0415,-0.042,-0.044,-0.0423,-0.0423,-0.0398,-0.0378,-0.0378,-0.0348,-0.0335,-0.0345,-0.0333,-0.0337,-0.0298,-0.0279,-0.0224,-0.0269,-0.0196,-0.0187,-0.0275,-0.0274,-0.0272,-0.0271,0,0,-0.0401,-0.0434,-0.0442,-0.0481,-0.0485,-0.0497,-0.0528,-0.0533,-0.0536,-0.051,-0.0512,-0.0515,-0.0452,-0.045,-0.0418,-0.038,-0.034,-0.0336,-0.0331,-0.0258,-0.0212,-0.017,-0.0155,-0.0317,-0.0317,-0.0316,-0.0162,0,-0.0474,-0.0559,-0.0546,-0.0639,-0.0687,-0.0649,-0.0685,-0.0672,-0.0641,-0.0627,-0.0562,-0.0558,-0.0509,-0.0496,-0.045,-0.0374,-0.0319,-0.0382,-0.019,-0.0184,-0.013,-0.0144,-0.0086,0.0057,-0.0152,-0.015,-0.0149,0,-0.0545,-0.0596,-0.0696,-0.0755,-0.0766,-0.0804,-0.0813,-0.0833,-0.0785,-0.0755,-0.07,-0.0639,-0.0586,-0.0536,-0.039,-0.0431,-0.0328,-0.0254,-0.0246,-0.0167,-0.0125,0.0067,0.0084,0.0239,-0.0133,-0.0135,-0.0136,0,-0.0615,-0.07,-0.0782,-0.0809,-0.0862,-0.0882,-0.0893,-0.0864,-0.0877,-0.082,-0.0809,-0.0709,-0.066,-0.053,-0.0368,-0.0379,-0.0186,-0.0179,-0.0033,-0.0028,0.0081,0.0093,0.0284,-0.0059,-0.0059,-0.0059,-0.006,0,-0.0706,-0.0773,-0.0819,-0.0876,-0.0954,-0.0949,-0.0999,-0.0983,-0.0962,-0.0977,-0.0871,-0.0834,-0.0656,-0.0521,-0.0376,-0.0166,-0.0179,-0.0031,0.0014,0.0051,0.0058,0.0245,0.0294,-0.0054,-0.0055,-0.0056,-0.0057,0,-0.078,-0.0813,-0.0916,-0.0982,-0.0997,-0.1048,-0.1085,-0.1116,-0.1076,-0.109,-0.1079,-0.0923,-0.0727,-0.0532,-0.0296,-0.0174,0.0124,0.0097,0.0135,0.018,0.0429,0.0469,0.069,0.0799,0.0271,0.0273,0.0274,0,-0.0825,-0.0888,-0.0992,-0.1046,-0.1079,-0.1141,-0.1186,-0.1178,-0.1205,-0.1134,-0.1145,-0.095,-0.0786,-0.0409,-0.0144,0.014,0.0253,0.0336,0.0315,0.0462,0.0541,0.0556,0.0632,0.0435,0.0438,0.0441,0.0442,0,-0.0915,-0.0946,-0.1028,-0.1138,-0.1206,-0.1287,-0.1338,-0.1375,-0.1358,-0.1341,-0.1225,-0.1071,-0.067,-0.0284,0.0082,0.0245,0.0453,0.039,0.0543,0.0686,0.0718,0.0837,0.032,0.0463,0.0461,0.0459,0.0458,0.0457,-0.096,-0.1033,-0.1127,-0.1219,-0.1308,-0.1395,-0.1421,-0.148,-0.1498,-0.1395,-0.1239,-0.0865,-0.0383,0.017,0.0329,0.0703,0.0652,0.0821,0.0861,0.0866,0.0959,0.0483,0.0663,0.0662,0.0661,0.066,0.066,0,-0.1005,-0.108,-0.119,-0.1288,-0.1357,-0.1397,-0.1489,-0.1496,-0.1496,-0.1292,-0.1103,-0.0325,0.0113,0.0549,0.0995,0.1174,0.1205,0.1265,0.132,0.1379,0.098,0.0974,0.1228,0.1228,0.1228,0.1228,0.1228,0.1228,-0.1031,-0.1135,-0.119,-0.1287,-0.1333,-0.138,-0.1407,-0.1445,-0.1312,-0.0908,-0.0351,0.0096,0.0708,0.121,0.1577,0.1604,0.1776,0.1744,0.1834,0.1568,0.153,0.1493,0.1502,0.1862,0.1863,0.2243,0.2247,0.225]}],[{"header":{"parameterUnit":"m.s-1","parameterCategory":2,"la1":30.2991,"la2":30.254,"lo1":-89.0895,"lo2":-89.0444,"dy":0.0017,"dx":0.0017,"nx":28,"ny":28,"refTime":"2025-08-18T09:00:00:Z","depth":"2","parameterNumber":2,"parameterNumberName":"U-component_of_CURRENTS"},"data":[0,0,0,0,0,0,0,0,0,0,0,0,0,0,0,0,0,0,0,0,0,0,0,0,0,0,0,0,0,0,0,0,0,0,0,0,0,0,0,0,0,0,0,0,0,0,0,0,0,0,0,0,0,0,0,0,0,0,-0.1909,-0.191,0,-0.2105,-0.2107,-0.211,-0.2176,-0.2175,-0.2174,-0.2172,-0.2441,-0.2449,-0.2457,0,0,0,0,0,0,0,0,0,0,0,0,0,-0.1738,-0.1741,-0.1908,-0.1911,-0.1913,-0.2104,-0.2107,-0.211,-0.2176,-0.2175,-0.2173,-0.2172,-0.2438,-0.2448,-0.2458,0,0,0,0,0,0,0,0,0,0,0,0,0,-0.1865,-0.1741,-0.1908,-0.1965,-0.1972,-0.2104,-0.2107,-0.2111,-0.2177,-0.2175,-0.2173,-0.2171,-0.2435,-0.2447,-0.2459,-0.2573,0,0,-0.2498,-0.2503,0,0,0,0,0,0,0,0,-0.1858,-0.1872,-0.1955,-0.1961,-0.1969,-0.211,-0.2146,-0.2268,-0.2177,-0.2104,-0.2172,-0.217,-0.2335,-0.2356,-0.2403,-0.2586,-0.2597,-0.2499,-0.2506,-0.2512,-0.2515,0,0,0,0,0,0,0,-0.1849,-0.1865,-0.1991,-0.1957,-0.1966,-0.2031,-0.2046,-0.217,-0.2233,-0.211,-0.2114,-0.2129,-0.234,-0.239,-0.2409,-0.2601,-0.2498,-0.2509,-0.2517,-0.2522,-0.2829,-0.283,0,0,0,0,0,0,-0.181,-0.1856,-0.1985,-0.1996,-0.1902,-0.2034,-0.2052,-0.207,-0.223,-0.225,-0.213,-0.2131,-0.237,-0.2395,-0.2419,-0.2557,-0.2511,-0.2523,-0.253,-0.2828,-0.2829,-0.283,0,0,0,0,0,0,-0.1806,-0.182,-0.1977,-0.1926,-0.195,-0.2038,-0.2059,-0.2075,-0.2146,-0.2244,-0.2266,-0.2185,-0.237,-0.2402,-0.255,-0.2568,-0.2529,-0.254,-0.2827,-0.2829,-0.2829,-0.2837,0,0,0,0,0,0,-0.18,-0.1817,-0.1853,-0.1924,-0.1951,-0.2072,-0.2061,-0.208,-0.2154,-0.2158,-0.2299,-0.232,-0.2371,-0.2532,-0.2563,-0.2584,-0.255,-0.2827,-0.2828,-0.2829,-0.2836,-0.2838,-0.284,0,0,0,0,0,-0.1793,-0.1829,-0.1853,-0.187,-0.1985,-0.2074,-0.2097,-0.2155,-0.2158,-0.2209,-0.2297,-0.2317,-0.2558,-0.2545,-0.2581,-0.2606,-0.2826,-0.2828,-0.2829,-0.2835,-0.2838,-0.284,0,0,0,0,0,0,-0.1774,-0.1841,-0.1868,-0.1924,-0.2004,-0.2083,-0.2124,-0.2176,-0.2288,-0.2283,-0.2376,-0.2407,-0.2528,-0.2574,-0.2557,-0.2689,-0.2677,-0.2686,-0.2669,-0.2673,-0.2675,-0.2608,-0.256,0,0,0,0,0,-0.1786,-0.1823,-0.1906,-0.1952,-0.198,-0.2063,-0.2116,-0.2156,-0.2244,-0.229,-0.239,-0.2474,-0.2562,-0.2624,-0.2711,-0.2828,-0.2779,-0.2847,-0.2849,-0.2851,-0.2817,-0.2745,-0.2736,-0.2835,-0.2835,-0.2835,0,0,-0.1793,-0.1829,-0.1857,-0.1951,-0.1999,-0.2072,-0.2091,-0.2157,-0.2231,-0.2306,-0.244,-0.2508,-0.2596,-0.2701,-0.2755,-0.2747,-0.2804,-0.2853,-0.2854,-0.2818,-0.2745,-0.2735,-0.2726,-0.2836,-0.2836,-0.2836,0,0,-0.1798,-0.1848,-0.188,-0.1949,-0.2026,-0.2084,-0.2109,-0.2211,-0.2266,-0.2418,-0.245,-0.2521,-0.2714,-0.2735,-0.2781,-0.2852,-0.282,-0.2883,-0.2852,-0.2784,-0.2774,-0.2764,-0.271,-0.2696,-0.288,-0.288,-0.288,0,-0.1801,-0.1855,-0.191,-0.1961,-0.2006,-0.2088,-0.2141,-0.2232,-0.238,-0.2399,-0.2457,-0.2616,-0.2713,-0.2762,-0.279,-0.2854,-0.281,-0.2843,-0.2782,-0.2771,-0.2761,-0.2708,-0.2692,-0.2881,-0.2881,-0.2881,-0.2881,0,-0.1849,-0.1895,-0.1909,-0.1997,-0.2066,-0.2118,-0.2224,-0.2303,-0.2381,-0.2441,-0.2523,-0.2638,-0.2701,-0.2752,-0.2824,-0.2794,-0.2786,-0.2794,-0.2767,-0.2751,-0.2698,-0.268,-0.2882,-0.2882,-0.2881,-0.2881,0,0,-0.1829,-0.1921,-0.1932,-0.195,-0.2079,-0.2123,-0.223,-0.2313,-0.2327,-0.2473,-0.2482,-0.2642,-0.2641,-0.2687,-0.2744,-0.2713,-0.2653,-0.2733,-0.2729,-0.2663,-0.2499,-0.2429,-0.2403,-0.2644,-0.2641,-0.2638,-0.2497,0,-0.1841,-0.1914,-0.1968,-0.2035,-0.2072,-0.2152,-0.2239,-0.232,-0.2387,-0.2429,-0.2487,-0.2543,-0.2636,-0.2656,-0.264,-0.2656,-0.2604,-0.269,-0.2537,-0.2532,-0.2456,-0.2379,-0.224,-0.2095,-0.248,-0.2477,-0.2475,0,-0.1876,-0.1913,-0.1974,-0.2012,-0.2031,-0.2089,-0.2146,-0.2231,-0.2292,-0.2333,-0.2352,-0.2408,-0.2429,-0.2495,-0.2454,-0.2504,-0.2491,-0.2488,-0.2482,-0.2388,-0.2426,-0.217,-0.2049,-0.2445,-0.2448,-0.245,-0.2452,0,-0.1819,-0.1899,-0.193,-0.1965,-0.2054,-0.2062,-0.211,-0.2181,-0.2218,-0.2236,-0.225,-0.226,-0.2295,-0.2261,-0.2332,-0.2371,-0.2252,-0.2297,-0.2199,-0.2196,-0.2028,-0.2014,-0.2192,-0.2192,-0.2192,-0.2193,-0.2193,0,-0.1791,-0.1807,-0.19,-0.1906,-0.1924,-0.2004,-0.1999,-0.2043,-0.2094,-0.2103,-0.2175,-0.2186,-0.2237,-0.2225,-0.2243,-0.2168,-0.2172,-0.2146,-0.2129,-0.2033,-0.2021,-0.229,-0.2303,-0.2188,-0.2189,-0.219,-0.2191,0,-0.1707,-0.1775,-0.1805,-0.1879,-0.1885,-0.1904,-0.1943,-0.1946,-0.2007,-0.2016,-0.2031,-0.2114,-0.2086,-0.2109,-0.206,-0.2056,-0.1988,-0.1955,-0.1853,-0.1825,-0.1996,-0.2012,-0.1788,-0.1783,-0.178,-0.1777,-0.1774,0,-0.167,-0.168,-0.1761,-0.176,-0.1774,-0.1803,-0.1816,-0.1892,-0.1907,-0.1979,-0.1983,-0.1986,-0.1968,-0.187,-0.1823,-0.1733,-0.1862,-0.1579,-0.1618,-0.1934,-0.1942,-0.1964,-0.1984,-0.1414,-0.1409,-0.1405,-0.1401,0,-0.1571,-0.1616,-0.1621,-0.1647,-0.1654,-0.168,-0.1704,-0.1717,-0.1816,-0.183,-0.1845,-0.1825,-0.175,-0.1604,-0.1513,-0.1469,-0.1581,-0.1487,-0.1784,-0.1554,-0.1574,-0.1586,-0.1619,-0.1363,-0.1367,-0.1369,-0.1372,-0.1373,-0.1493,-0.1475,-0.1492,-0.1502,-0.1525,-0.1549,-0.1519,-0.157,-0.1584,-0.1599,-0.1661,-0.1573,-0.1551,-0.1317,-0.123,-0.1167,-0.1291,-0.1262,-0.1278,-0.1298,-0.1295,-0.1309,-0.1048,-0.105,-0.1052,-0.1053,-0.1055,0,-0.1398,-0.1354,-0.1338,-0.1352,-0.1351,-0.141,-0.1431,-0.1395,-0.137,-0.1392,-0.1366,-0.12,-0.1079,-0.1058,-0.0884,-0.0846,-0.0867,-0.0827,-0.0869,-0.0906,-0.0939,-0.0923,-0.0574,-0.0573,-0.0572,-0.057,0,0,-0.131,-0.1243,-0.1227,-0.1181,-0.1192,-0.1145,-0.1138,-0.1102,-0.108,-0.1016,-0.097,-0.1031,-0.102,-0.0809,-0.0747,-0.0628,-0.0764,-0.059,-0.0973,-0.1059,-0.109,-0.1182,-0.1196,0,0,0,0,0]},{"header":{"parameterUnit":"m.s-1","parameterCategory":2,"la1":30.2991,"la2":30.254,"lo1":-89.0895,"lo2":-89.0444,"dy":0.0017,"dx":0.0017,"nx":28,"ny":28,"refTime":"2025-08-18T09:00:00:Z","depth":"2","parameterNumber":3,"parameterNumberName":"V-component_of_CURRENTS"},"data":[0,0,0,0,0,0,0,0,0,0,0,0,0,0,0,0,0,0,0,0,0,0,0,0,0,0,0,0,0,0,0,0,0,0,0,0,0,0,0,0,0,0,0,0,0,0,0,0,0,0,0,0,0,0,0,0,0,0,-0.0286,-0.0286,0,-0.0178,-0.0176,-0.0174,-0.0069,-0.0069,-0.0068,-0.0067,0.0329,0.0338,0.0348,0,0,0,0,0,0,0,0,0,0,0,0,0,-0.028,-0.0281,-0.0286,-0.0286,-0.0285,-0.0178,-0.0176,-0.0174,-0.0069,-0.0069,-0.0068,-0.0067,0.0325,0.0337,0.0349,0,0,0,0,0,0,0,0,0,0,0,0,0,-0.0231,-0.0281,-0.0286,-0.0226,-0.022,-0.0179,-0.0176,-0.0173,-0.0069,-0.0069,-0.0068,-0.0067,0.0321,0.0336,0.0351,0.0425,0,0,0.0396,0.0403,0,0,0,0,0,0,0,0,-0.0234,-0.0231,-0.0235,-0.023,-0.0224,-0.0143,-0.0029,0.0038,-0.007,-0.0118,-0.0067,-0.0066,0.0192,0.0217,0.0243,0.0443,0.046,0.0398,0.0407,0.0413,0.0417,0,0,0,0,0,0,0,-0.0238,-0.0234,-0.0235,-0.0235,-0.0228,-0.0163,-0.0155,-0.0016,0.0042,-0.0114,-0.0108,-0.0109,0.0198,0.0228,0.0254,0.0466,0.0397,0.0411,0.042,0.0426,0.0815,0.0816,0,0,0,0,0,0,-0.0276,-0.0238,-0.0239,-0.0233,-0.0236,-0.0165,-0.0156,-0.0163,0.0034,0.0061,-0.011,-0.0105,0.0202,0.0236,0.0268,0.0451,0.0413,0.0427,0.0436,0.0814,0.0815,0.0817,0,0,0,0,0,0,-0.0276,-0.0277,-0.0243,-0.0239,-0.0231,-0.0168,-0.0176,-0.0162,-0.0121,0.0032,0.0066,-0.0084,0.0204,0.0247,0.0392,0.0464,0.0434,0.0447,0.0812,0.0814,0.0816,0.0764,0,0,0,0,0,0,-0.0276,-0.0278,-0.0283,-0.0242,-0.0233,-0.0223,-0.0177,-0.0161,-0.0128,-0.0119,0.0067,0.0103,0.0208,0.0369,0.0407,0.0484,0.0459,0.081,0.0813,0.0815,0.0764,0.0764,0.0764,0,0,0,0,0,-0.0276,-0.0298,-0.0284,-0.0284,-0.0247,-0.0224,-0.0212,-0.0158,-0.0128,-0.0115,0.0009,0.0098,0.0413,0.0381,0.0426,0.051,0.0809,0.0812,0.0815,0.0764,0.0764,0.0764,0,0,0,0,0,0,-0.0295,-0.0289,-0.0272,-0.029,-0.0262,-0.021,-0.0199,-0.016,-0.0057,-0.0041,0.0115,0.016,0.032,0.0406,0.0367,0.0624,0.0628,0.064,0.0574,0.0575,0.0575,0.0494,0.0472,0,0,0,0,0,-0.0307,-0.0322,-0.0297,-0.0309,-0.0302,-0.0247,-0.0227,-0.0198,-0.0116,-0.0072,0.0062,0.021,0.0365,0.0456,0.059,0.073,0.0712,0.081,0.081,0.081,0.0772,0.0773,0.0768,0.0827,0.0827,0.0827,0,0,-0.032,-0.0319,-0.0326,-0.0314,-0.0287,-0.0272,-0.023,-0.0217,-0.0175,-0.0038,0.0083,0.0218,0.0397,0.0552,0.0633,0.0639,0.0784,0.0814,0.0812,0.0774,0.0776,0.0769,0.0763,0.0829,0.0829,0.0828,0,0,-0.036,-0.0351,-0.0375,-0.0356,-0.0338,-0.0298,-0.0297,-0.0237,-0.0178,-0.0065,0.0057,0.0198,0.0436,0.0561,0.0664,0.0739,0.0778,0.0817,0.0772,0.0775,0.0769,0.0763,0.0718,0.0708,0.0824,0.0824,0.0824,0,-0.0371,-0.04,-0.0375,-0.0384,-0.0373,-0.0312,-0.032,-0.0247,-0.0138,-0.0096,-0.0034,0.0263,0.0434,0.0605,0.0658,0.0741,0.0721,0.0762,0.0769,0.0763,0.0758,0.0713,0.0703,0.0822,0.0823,0.0823,0.0823,0,-0.0419,-0.0436,-0.0449,-0.0436,-0.0413,-0.0417,-0.0337,-0.0283,-0.0196,-0.0127,0.0034,0.0234,0.0392,0.0511,0.0636,0.072,0.0708,0.0758,0.0753,0.0748,0.0703,0.0693,0.0819,0.082,0.0821,0.0821,0,0,-0.0462,-0.0482,-0.0484,-0.0491,-0.0448,-0.0435,-0.037,-0.0306,-0.0268,-0.0127,-0.0071,0.0223,0.0285,0.04,0.0565,0.0619,0.0614,0.0682,0.0683,0.0606,0.0571,0.0646,0.0643,0.0661,0.066,0.0659,0.0547,0,-0.0505,-0.0549,-0.0538,-0.0549,-0.0559,-0.0494,-0.0433,-0.0362,-0.0268,-0.0192,-0.0022,0.0116,0.026,0.0358,0.0421,0.0587,0.0588,0.0635,0.0613,0.0611,0.0655,0.0635,0.0645,0.0555,0.0537,0.0536,0.0535,0,-0.0551,-0.0574,-0.0613,-0.0611,-0.0608,-0.059,-0.0521,-0.0465,-0.0355,-0.0285,-0.0189,-0.006,0.0085,0.0194,0.0334,0.0355,0.0434,0.0529,0.0527,0.06,0.0669,0.0565,0.0538,0.0518,0.052,0.0521,0.0522,0,-0.059,-0.0623,-0.0659,-0.0656,-0.0634,-0.0626,-0.0593,-0.05,-0.045,-0.0364,-0.0322,-0.0196,-0.0083,0.0,0.024,0.0267,0.0355,0.0403,0.0504,0.0507,0.0511,0.0519,0.0413,0.0414,0.0414,0.0414,0.0414,0,-0.064,-0.0666,-0.0682,-0.0698,-0.0711,-0.0676,-0.0663,-0.0612,-0.0543,-0.0499,-0.0382,-0.0305,-0.0118,-0.0006,0.0136,0.0299,0.0247,0.046,0.0487,0.0497,0.0505,0.0482,0.0491,0.041,0.0411,0.0412,0.0412,0,-0.0681,-0.0696,-0.0737,-0.0741,-0.0738,-0.0742,-0.0712,-0.0693,-0.0628,-0.0575,-0.0548,-0.0395,-0.025,-0.0082,0.009,0.0202,0.0332,0.0391,0.0379,0.0409,0.0477,0.0486,0.0419,0.042,0.0422,0.0423,0.0424,0,-0.0711,-0.074,-0.0772,-0.0785,-0.0793,-0.0793,-0.0783,-0.0735,-0.0714,-0.0604,-0.0581,-0.0431,-0.0293,-0.0053,0.016,0.0317,0.0356,0.0417,0.0492,0.0447,0.0479,0.0485,0.0491,0.0448,0.0449,0.045,0.0451,0,-0.0757,-0.077,-0.0796,-0.0829,-0.084,-0.0856,-0.0844,-0.084,-0.077,-0.0697,-0.0579,-0.0468,-0.0225,0.0009,0.0237,0.0344,0.0393,0.0444,0.0381,0.0483,0.0477,0.0509,0.0513,0.046,0.0459,0.0458,0.0458,0.0457,-0.0781,-0.0804,-0.0834,-0.0861,-0.0883,-0.0904,-0.0909,-0.0863,-0.0807,-0.0672,-0.0581,-0.038,-0.0178,0.0178,0.0334,0.0478,0.0475,0.0528,0.0523,0.0517,0.0579,0.0581,0.0588,0.0588,0.0588,0.0588,0.0588,0,-0.0799,-0.0821,-0.0855,-0.0895,-0.0932,-0.0932,-0.0933,-0.0893,-0.0804,-0.0646,-0.0488,-0.024,0.0016,0.02,0.0445,0.0587,0.0564,0.0603,0.0556,0.0549,0.0541,0.0603,0.0619,0.0619,0.0619,0.0619,0,0,-0.0801,-0.0839,-0.0855,-0.0921,-0.0953,-0.0984,-0.0986,-0.0885,-0.0765,-0.0554,-0.0391,-0.0183,0.0037,0.022,0.0398,0.0515,0.0488,0.052,0.0488,0.0407,0.0398,0.05,0.0587,0,0,0,0,0]}],[{"header":{"parameterUnit":"m.s-1","parameterCategory":2,"la1":30.2991,"la2":30.254,"lo1":-89.0895,"lo2":-89.0444,"dy":0.0017,"dx":0.0017,"nx":28,"ny":28,"refTime":"2025-08-18T09:00:00:Z","depth":"4","parameterNumber":2,"parameterNumberName":"U-component_of_CURRENTS"},"data":[0,0,0,0,0,0,0,0,0,0,0,0,0,0,0,0,0,0,0,0,0,0,0,0,0,0,0,0,0,0,0,0,0,0,0,0,0,0,0,0,0,0,0,0,0,0,0,0,0,0,0,0,0,0,0,0,0,0,-0.1224,-0.1225,0,-0.1306,-0.1307,-0.1308,-0.1345,-0.1345,-0.1345,-0.1345,-0.1373,-0.1373,-0.1374,0,0,0,0,0,0,0,0,0,0,0,0,0,-0.1127,-0.1128,-0.1224,-0.1225,-0.1226,-0.1306,-0.1307,-0.1308,-0.1345,-0.1345,-0.1345,-0.1345,-0.1372,-0.1373,-0.1374,0,0,0,0,0,0,0,0,0,0,0,0,0,-0.1184,-0.1128,-0.1224,-0.1255,-0.1259,-0.1306,-0.1307,-0.1309,-0.1345,-0.1345,-0.1345,-0.1345,-0.1372,-0.1373,-0.1374,-0.1381,0,0,-0.1378,-0.1378,0,0,0,0,0,0,0,0,-0.1181,-0.1187,-0.1249,-0.1253,-0.1257,-0.1316,-0.1283,-0.133,-0.1345,-0.1311,-0.1345,-0.1345,-0.1349,-0.1352,-0.1367,-0.1383,-0.1384,-0.1378,-0.1379,-0.1379,-0.1379,0,0,0,0,0,0,0,-0.1177,-0.1184,-0.1255,-0.125,-0.1255,-0.1275,-0.1282,-0.1293,-0.1327,-0.1314,-0.1317,-0.1328,-0.1351,-0.1366,-0.1368,-0.1384,-0.1378,-0.1379,-0.1379,-0.138,-0.1476,-0.1478,0,0,0,0,0,0,-0.1167,-0.118,-0.1253,-0.1258,-0.1219,-0.1276,-0.1285,-0.1296,-0.1329,-0.1334,-0.1328,-0.1329,-0.1364,-0.1367,-0.1369,-0.141,-0.1379,-0.138,-0.1381,-0.1474,-0.1477,-0.1479,0,0,0,0,0,0,-0.1165,-0.1173,-0.125,-0.1222,-0.1233,-0.1278,-0.1291,-0.1298,-0.1327,-0.134,-0.1344,-0.1351,-0.1364,-0.1367,-0.1397,-0.141,-0.1381,-0.1382,-0.1472,-0.1475,-0.1478,-0.1471,0,0,0,0,0,0,-0.1162,-0.1172,-0.1181,-0.1221,-0.1234,-0.1284,-0.1291,-0.13,-0.1333,-0.1337,-0.1361,-0.1363,-0.1365,-0.1396,-0.1399,-0.1411,-0.1382,-0.147,-0.1474,-0.1477,-0.1468,-0.1473,-0.1477,0,0,0,0,0,-0.1158,-0.1172,-0.1181,-0.119,-0.1244,-0.1285,-0.1294,-0.1325,-0.1335,-0.135,-0.1372,-0.1363,-0.1421,-0.1398,-0.1401,-0.1413,-0.1468,-0.1472,-0.1477,-0.1467,-0.1472,-0.1477,0,0,0,0,0,0,-0.1136,-0.1178,-0.1189,-0.1215,-0.125,-0.1292,-0.1314,-0.1333,-0.1365,-0.1374,-0.1379,-0.1383,-0.1415,-0.1425,-0.14,-0.1458,-0.1446,-0.1451,-0.1438,-0.1443,-0.1447,-0.1437,-0.1383,0,0,0,0,0,-0.1134,-0.1152,-0.1197,-0.1215,-0.1238,-0.1278,-0.13,-0.1325,-0.1357,-0.1373,-0.139,-0.1415,-0.1434,-0.1446,-0.1466,-0.1492,-0.1499,-0.1509,-0.1513,-0.1516,-0.1514,-0.155,-0.1556,-0.1493,-0.1493,-0.1493,0,0,-0.1126,-0.1155,-0.1163,-0.1211,-0.1243,-0.1276,-0.1292,-0.1336,-0.1361,-0.1369,-0.141,-0.1427,-0.1446,-0.1477,-0.1493,-0.1486,-0.1537,-0.1522,-0.1523,-0.152,-0.1555,-0.156,-0.1566,-0.1496,-0.1495,-0.1495,0,0,-0.1124,-0.1153,-0.1171,-0.1206,-0.1261,-0.1286,-0.1301,-0.1356,-0.1381,-0.1421,-0.1434,-0.1456,-0.1495,-0.1504,-0.1513,-0.1554,-0.1556,-0.1576,-0.1584,-0.1619,-0.1623,-0.1628,-0.163,-0.1634,-0.1579,-0.1579,-0.1579,0,-0.1116,-0.1147,-0.1182,-0.1217,-0.1248,-0.129,-0.1323,-0.1354,-0.141,-0.1429,-0.1436,-0.1498,-0.1501,-0.1531,-0.1545,-0.1557,-0.1579,-0.1555,-0.1621,-0.1625,-0.1629,-0.1631,-0.1636,-0.1579,-0.1579,-0.1579,-0.1579,0,-0.1129,-0.1163,-0.1182,-0.1233,-0.1268,-0.1308,-0.1357,-0.1395,-0.1427,-0.145,-0.1498,-0.1516,-0.1551,-0.1559,-0.1559,-0.16,-0.1605,-0.1616,-0.1597,-0.1634,-0.1635,-0.164,-0.1579,-0.1579,-0.1579,-0.1579,0,0,-0.1087,-0.1173,-0.1182,-0.1213,-0.1286,-0.1316,-0.1365,-0.1414,-0.1453,-0.1491,-0.1535,-0.1552,-0.1569,-0.1583,-0.1596,-0.1618,-0.1648,-0.1635,-0.1637,-0.1617,-0.1717,-0.1565,-0.1555,-0.1684,-0.1686,-0.1687,-0.1699,0,-0.1088,-0.1148,-0.1194,-0.1248,-0.1283,-0.1345,-0.1387,-0.1438,-0.1483,-0.1537,-0.1554,-0.1599,-0.1578,-0.1609,-0.1625,-0.1656,-0.1666,-0.1643,-0.1702,-0.1703,-0.1546,-0.1557,-0.1691,-0.1703,-0.1704,-0.1705,-0.1705,0,-0.1084,-0.1126,-0.1183,-0.1267,-0.1291,-0.133,-0.1414,-0.146,-0.1534,-0.1577,-0.1617,-0.1644,-0.1673,-0.1665,-0.1703,-0.1701,-0.1704,-0.1715,-0.1716,-0.1578,-0.1559,-0.1665,-0.1715,-0.1714,-0.1713,-0.1713,-0.1712,0,-0.1032,-0.1118,-0.1161,-0.1192,-0.1291,-0.1332,-0.1383,-0.1466,-0.152,-0.1606,-0.1656,-0.1695,-0.173,-0.1751,-0.1742,-0.1749,-0.1782,-0.1794,-0.165,-0.164,-0.1776,-0.1772,-0.1816,-0.1816,-0.1815,-0.1815,-0.1815,0,-0.1011,-0.105,-0.1145,-0.1172,-0.1234,-0.1309,-0.1388,-0.1452,-0.1551,-0.1606,-0.1669,-0.1712,-0.1762,-0.1778,-0.1769,-0.1702,-0.1797,-0.164,-0.1631,-0.1773,-0.1768,-0.1779,-0.1774,-0.1816,-0.1816,-0.1816,-0.1816,0,-0.0951,-0.1019,-0.1069,-0.1172,-0.1215,-0.1252,-0.1392,-0.1447,-0.1547,-0.1627,-0.1657,-0.1741,-0.1743,-0.1752,-0.178,-0.1714,-0.1685,-0.1638,-0.1764,-0.1765,-0.1517,-0.1513,-0.1489,-0.1484,-0.1479,-0.1475,-0.1472,0,-0.0927,-0.0948,-0.1053,-0.1094,-0.1147,-0.1233,-0.1304,-0.1429,-0.1486,-0.162,-0.1642,-0.1687,-0.1714,-0.1616,-0.1645,-0.1591,-0.1567,-0.1548,-0.154,-0.1488,-0.1484,-0.1487,-0.1488,-0.1465,-0.1464,-0.1463,-0.1461,0,-0.0866,-0.0906,-0.0951,-0.1032,-0.1106,-0.119,-0.1289,-0.1329,-0.146,-0.1565,-0.1575,-0.1561,-0.1549,-0.1524,-0.1474,-0.1446,-0.1563,-0.1501,-0.151,-0.1503,-0.1459,-0.146,-0.1467,-0.1446,-0.1448,-0.145,-0.145,0,-0.0812,-0.0824,-0.0888,-0.0953,-0.1047,-0.1111,-0.1183,-0.1246,-0.1316,-0.1453,-0.1448,-0.1483,-0.154,-0.1448,-0.1415,-0.1351,-0.1333,-0.1301,-0.1321,-0.1338,-0.1276,-0.1197,-0.1085,0,0,0,0,0,-0.0745,-0.0762,-0.0814,-0.0884,-0.0976,-0.103,-0.1161,-0.1233,-0.1359,-0.1323,-0.1381,-0.1354,-0.1297,-0.1319,-0.1215,-0.1336,-0.1337,-0.1212,-0.1311,-0.1359,-0.1377,-0.1313,0,0,0,0,0,0,-0.0708,-0.0743,-0.0773,-0.0812,-0.0851,-0.0944,-0.102,-0.1111,-0.11,-0.1217,-0.1184,-0.1258,-0.1211,-0.1314,-0.1179,-0.118,-0.1212,-0.1232,-0.1228,-0.1349,-0.1365,-0.138,-0.132,0,0,0,0,0]},{"header":{"parameterUnit":"m.s-1","parameterCategory":2,"la1":30.2991,"la2":30.254,"lo1":-89.0895,"lo2":-89.0444,"dy":0.0017,"dx":0.0017,"nx":28,"ny":28,"refTime":"2025-08-18T09:00:00:Z","depth":"4","parameterNumber":3,"parameterNumberName":"V-component_of_CURRENTS"},"data":[0,0,0,0,0,0,0,0,0,0,0,0,0,0,0,0,0,0,0,0,0,0,0,0,0,0,0,0,0,0,0,0,0,0,0,0,0,0,0,0,0,0,0,0,0,0,0,0,0,0,0,0,0,0,0,0,0,0,-0.0279,-0.0279,0,-0.0264,-0.0264,-0.0264,-0.022,-0.0219,-0.0218,-0.0217,-0.0199,-0.0199,-0.02,0,0,0,0,0,0,0,0,0,0,0,0,0,-0.0243,-0.0244,-0.028,-0.0279,-0.0279,-0.0264,-0.0264,-0.0264,-0.022,-0.0219,-0.0218,-0.0217,-0.0199,-0.0199,-0.02,0,0,0,0,0,0,0,0,0,0,0,0,0,-0.0245,-0.0245,-0.028,-0.0257,-0.0255,-0.0264,-0.0264,-0.0264,-0.022,-0.0219,-0.0218,-0.0216,-0.0199,-0.0199,-0.02,-0.0228,0,0,-0.0201,-0.0201,0,0,0,0,0,0,0,0,-0.0245,-0.0247,-0.026,-0.0258,-0.0256,-0.0244,-0.0245,-0.0252,-0.022,-0.0232,-0.0217,-0.0216,-0.0216,-0.0215,-0.0213,-0.0227,-0.0226,-0.0201,-0.0201,-0.0202,-0.0202,0,0,0,0,0,0,0,-0.0245,-0.0247,-0.0272,-0.026,-0.0258,-0.0238,-0.0237,-0.0245,-0.023,-0.0231,-0.0228,-0.0229,-0.0214,-0.0212,-0.0212,-0.0226,-0.0201,-0.0202,-0.0202,-0.0202,-0.0237,-0.0238,0,0,0,0,0,0,-0.0253,-0.0247,-0.0273,-0.0272,-0.0249,-0.024,-0.0239,-0.0248,-0.023,-0.0226,-0.023,-0.0227,-0.0212,-0.0211,-0.0211,-0.0239,-0.0202,-0.0202,-0.0202,-0.0237,-0.0237,-0.0238,0,0,0,0,0,0,-0.0253,-0.0256,-0.0273,-0.0259,-0.026,-0.0242,-0.0253,-0.0248,-0.0243,-0.0229,-0.0225,-0.0229,-0.0211,-0.0211,-0.0224,-0.0238,-0.0202,-0.0203,-0.0236,-0.0237,-0.0238,-0.0296,0,0,0,0,0,0,-0.0252,-0.0256,-0.0268,-0.026,-0.0262,-0.0286,-0.0254,-0.0249,-0.0247,-0.0242,-0.0228,-0.0224,-0.021,-0.0223,-0.0224,-0.0237,-0.0203,-0.0235,-0.0236,-0.0237,-0.0293,-0.0299,-0.0304,0,0,0,0,0,-0.0251,-0.0274,-0.0269,-0.0272,-0.0278,-0.0288,-0.0287,-0.0267,-0.0248,-0.0256,-0.0245,-0.0225,-0.0231,-0.0225,-0.0226,-0.0239,-0.0234,-0.0236,-0.0237,-0.0291,-0.0298,-0.0304,0,0,0,0,0,0,-0.0263,-0.0272,-0.0266,-0.029,-0.0292,-0.0281,-0.0287,-0.0274,-0.0271,-0.0264,-0.0243,-0.0241,-0.0257,-0.0242,-0.0235,-0.0251,-0.0226,-0.0228,-0.0266,-0.0273,-0.0278,-0.0257,-0.0203,0,0,0,0,0,-0.0274,-0.0293,-0.0294,-0.0313,-0.0315,-0.0302,-0.0303,-0.0292,-0.0287,-0.0283,-0.0274,-0.0263,-0.0266,-0.0264,-0.0265,-0.0281,-0.0224,-0.0286,-0.0291,-0.0296,-0.0279,-0.02,-0.0196,-0.0243,-0.0243,-0.0243,0,0,-0.0284,-0.0291,-0.0302,-0.0317,-0.0313,-0.0327,-0.0299,-0.0306,-0.0312,-0.0285,-0.0293,-0.0289,-0.0276,-0.0291,-0.0295,-0.0279,-0.0257,-0.0298,-0.0302,-0.0282,-0.0201,-0.0196,-0.0192,-0.0244,-0.0244,-0.0244,0,0,-0.0314,-0.032,-0.0344,-0.0349,-0.0353,-0.0348,-0.0353,-0.0348,-0.0339,-0.0355,-0.0333,-0.0332,-0.0341,-0.0327,-0.0323,-0.0357,-0.0292,-0.0362,-0.0367,-0.0293,-0.0287,-0.0282,-0.0218,-0.0206,-0.0358,-0.0358,-0.0359,0,-0.0324,-0.0355,-0.0352,-0.0372,-0.0376,-0.0361,-0.038,-0.0377,-0.0376,-0.0367,-0.0364,-0.0352,-0.0353,-0.0346,-0.0362,-0.0368,-0.0312,-0.0348,-0.0297,-0.029,-0.0284,-0.0219,-0.0206,-0.0361,-0.0361,-0.0361,-0.036,0,-0.0366,-0.039,-0.0403,-0.0424,-0.0429,-0.0444,-0.0438,-0.0442,-0.0432,-0.0418,-0.041,-0.0403,-0.0383,-0.0395,-0.0395,-0.0358,-0.033,-0.0317,-0.0278,-0.0282,-0.0215,-0.02,-0.0366,-0.0365,-0.0364,-0.0363,0,0,-0.0387,-0.0427,-0.0431,-0.0446,-0.0455,-0.0464,-0.0475,-0.0473,-0.0461,-0.0458,-0.0432,-0.0447,-0.0418,-0.0409,-0.0398,-0.0344,-0.0275,-0.0314,-0.0309,-0.0245,-0.0103,-0.0127,-0.0112,-0.0244,-0.0242,-0.0239,-0.008,0,-0.0418,-0.047,-0.0476,-0.0513,-0.0535,-0.0521,-0.0527,-0.0519,-0.05,-0.0473,-0.0442,-0.0422,-0.0429,-0.0415,-0.0365,-0.0295,-0.0234,-0.0319,-0.0112,-0.0106,-0.0121,-0.0095,-0.0231,-0.0069,-0.0065,-0.0062,-0.006,0,-0.0453,-0.0483,-0.0531,-0.0552,-0.0557,-0.0575,-0.0561,-0.0563,-0.0519,-0.0497,-0.0456,-0.0418,-0.0361,-0.0357,-0.0212,-0.0261,-0.0185,-0.0125,-0.0117,-0.0101,-0.0101,-0.0059,-0.0032,-0.0034,-0.0036,-0.0038,-0.004,0,-0.0468,-0.0515,-0.0555,-0.0565,-0.0589,-0.0598,-0.0602,-0.0572,-0.0557,-0.0499,-0.0467,-0.0388,-0.0338,-0.0228,-0.0135,-0.0152,0.0041,0.0037,0.0094,0.0093,0.0093,0.0086,0.0164,0.0164,0.0164,0.0163,0.0163,0,-0.0495,-0.0526,-0.057,-0.0592,-0.062,-0.062,-0.0624,-0.0611,-0.0569,-0.0535,-0.0475,-0.0416,-0.0297,-0.0187,-0.01,0.004,0.0077,0.0112,0.0141,0.006,0.0047,0.0104,0.0094,0.0169,0.0168,0.0167,0.0166,0,-0.0506,-0.054,-0.0585,-0.0622,-0.0635,-0.0651,-0.0656,-0.0648,-0.0603,-0.0551,-0.0528,-0.0412,-0.0265,-0.0151,0.0036,0.0085,0.0218,0.0258,0.0163,0.018,0.0216,0.0202,0.0362,0.0363,0.0363,0.0364,0.0364,0,-0.0519,-0.0548,-0.0607,-0.0633,-0.0657,-0.0681,-0.0693,-0.0673,-0.0653,-0.0544,-0.0512,-0.0363,-0.028,-0.002,0.0081,0.0263,0.0269,0.0337,0.0276,0.0229,0.0241,0.0226,0.0211,0.0365,0.0365,0.0365,0.0366,0,-0.0533,-0.0558,-0.0594,-0.0652,-0.0685,-0.0712,-0.0724,-0.0707,-0.0656,-0.0616,-0.0459,-0.0325,-0.016,0.0003,0.0132,0.0253,0.0292,0.0343,0.0342,0.0286,0.0234,0.0242,0.0227,0.0368,0.0367,0.0367,0.0367,0,-0.0534,-0.0562,-0.0615,-0.0657,-0.0706,-0.0728,-0.0731,-0.0685,-0.0652,-0.0527,-0.0471,-0.029,-0.0181,0.0,0.0122,0.0232,0.0255,0.0278,0.0281,0.028,0.0182,0.01,0.0238,0,0,0,0,0,-0.053,-0.0566,-0.0614,-0.0667,-0.0716,-0.0744,-0.0744,-0.0733,-0.0679,-0.0566,-0.0512,-0.0353,-0.0132,-0.0031,0.008,0.0099,0.024,0.0229,0.0259,0.0379,0.0376,0.027,0,0,0,0,0,0,-0.053,-0.0581,-0.0611,-0.0667,-0.0706,-0.0753,-0.0757,-0.0721,-0.0645,-0.0564,-0.0439,-0.0348,-0.0139,-0.0198,0.0076,0.011,0.0139,0.0337,0.0338,0.038,0.0378,0.0376,0.0266,0,0,0,0,0]}]]